Location: Unspecified
(0.0000°N, 0.0000°E)
Time: 18:13:38
(UTC+00:00)

Vanguard 1 - Pass Details

Date: 02 October 2020
Orbit: 650 x 3833 km, 34.3° (Epoch: 26 October)

Event Time Altitude Azimuth Distance (km) Brightness Sun altitude
Rises 02:13:53 0° 344° (NNW) 3,089 - -53.7°
Reaches altitude 10° 02:17:15 10° 12° (NNE) 2,411 - -52.9°
Maximum altitude 02:20:06 14° 43° (NE) 2,402 - -52.2°
Exits shadow 02:22:42 12° 67° (ENE) 2,846 12.8 -51.5°
Drops below altitude 10° 02:23:33 10° 73° (ENE) 3,056 13.0 -51.3°
Sets 02:28:57 0° 96° (E) 4,683 14.2 -49.9°
